Starlink 2381

operational
NORAD ID: 47800 Int'l Des: 2021-018 Owner: SPXS Country: US Constellation: starlink
LEOCIRCULARSTARLINK_TYPE

About Starlink 2381

Description loading...

Live Position

Loading 3D Globe...

Upcoming Passes

Altitude History

Altitude vs Time

uPlot chart will show altitude changes over time

Two-Line Element Set

1 47800U 21018P 25347.17154038 .00018873 00000-0 12828-2 0 9991
2 47800 53.0537 260.0095 0001646 95.5541 264.5636 15.06391237263833
Epoch: Dec 13, 2025 • Age: 32 hours

Current Status

Altitude 559.7 km
Velocity 7.58 km/s
Sub-Earth Point -36.23°S, 38.84°W
Launch Date Mar 11, 2021
Age 4.7 years
Type internet

Technical Details

Classification Payload
Mass 260.00 kg
Dry Mass 248.00 kg
Total Mass 260.00 kg
Length 0.20 m
Diameter 2.80 m
Span 9.00 m
Shape Box + pan
Manufacturer SPXS
Bus Type Starlink
Phase Status In Orbit
Owner/State SPXS/US

Large Constellations

Loading constellations...